owner,sensor,date,latitude,longitude,vertical_datum,mass_concentration_of_oxygen_in_sea_water,qcFlag 
DISL,ioos:station:DISL:DISL:1,2010-07-01T00:00:00Z,30.2513,-88.0778,7.27,5.97,1111122 
DISL,ioos:station:DISL:DISL:1,2010-07-01T00:30:00Z,30.2513,-88.0778,7.18,5.97,1111122 
DISL,ioos:station:DISL:DISL:1,2010-07-01T01:00:00Z,30.2513,-88.0778,7.12,6.05,1111122 
DISL,ioos:station:DISL:DISL:1,2010-07-01T01:30:00Z,30.2513,-88.0778,6.949,5.94,1111122 
DISL,ioos:station:DISL:DISL:1,2010-07-01T02:00:00Z,30.2513,-88.0778,7.01,5.88,1111122 
DISL,ioos:station:DISL:DISL:1,2010-07-01T02:30:00Z,30.2513,-88.0778,7.05,5.75,1111122 
DISL,ioos:station:DISL:DISL:1,2010-07-01T03:00:00Z,30.2513,-88.0778,6.902,5.75,1111122 
DISL,ioos:station:DISL:DISL:1,2010-07-01T03:30:00Z,30.2513,-88.0778,6.898,5.67,1111122 
DISL,ioos:station:DISL:DISL:1,2010-07-01T04:00:00Z,30.2513,-88.0778,6.882,5.63,1111122 
DISL,ioos:station:DISL:DISL:1,2010-07-01T04:30:00Z,30.2513,-88.0778,6.895,5.67,1111122 
DISL,ioos:station:DISL:DISL:1,2010-07-01T05:00:00Z,30.2513,-88.0778,6.905,5.88,1111122 
DISL,ioos:station:DISL:DISL:1,2010-07-01T05:30:00Z,30.2513,-88.0778,6.874,5.99,1111122 
DISL,ioos:station:DISL:DISL:1,2010-07-01T06:00:00Z,30.2513,-88.0778,6.824,6.13,1111122 
DISL,ioos:station:DISL:DISL:1,2010-07-01T06:30:00Z,30.2513,-88.0778,6.766,6.26,1111122 
DISL,ioos:station:DISL:DISL:1,2010-07-01T07:00:00Z,30.2513,-88.0778,6.764,6.6,1111122 
DISL,ioos:station:DISL:DISL:1,2010-07-01T07:30:00Z,30.2513,-88.0778,6.721,6.5,1111122 
DISL,ioos:station:DISL:DISL:1,2010-07-01T08:00:00Z,30.2513,-88.0778,6.789,6.12,1111122 
DISL,ioos:station:DISL:DISL:1,2010-07-01T08:30:00Z,30.2513,-88.0778,6.836,5.78,1111122 
DISL,ioos:station:DISL:DISL:1,2010-07-01T09:00:00Z,30.2513,-88.0778,6.87,5.48,1111122 
DISL,ioos:station:DISL:DISL:1,2010-07-01T09:30:00Z,30.2513,-88.0778,6.912,5.11,1111122 
DISL,ioos:station:DISL:DISL:1,2010-07-01T10:00:00Z,30.2513,-88.0778,6.911,4.99,1111122 
DISL,ioos:station:DISL:DISL:1,2010-07-01T10:30:00Z,30.2513,-88.0778,7.0,4.95,1111122 
DISL,ioos:station:DISL:DISL:1,2010-07-01T11:00:00Z,30.2513,-88.0778,7.1,4.79,1111122 
DISL,ioos:station:DISL:DISL:1,2010-07-01T11:30:00Z,30.2513,-88.0778,7.03,4.72,1111122 
DISL,ioos:station:DISL:DISL:1,2010-07-01T12:00:00Z,30.2513,-88.0778,7.09,4.89,1111122 
DISL,ioos:station:DISL:DISL:1,2010-07-01T12:30:00Z,30.2513,-88.0778,7.12,4.87,1111122 
DISL,ioos:station:DISL:DISL:1,2010-07-01T13:00:00Z,30.2513,-88.0778,7.25,4.8,1111122 
DISL,ioos:station:DISL:DISL:1,2010-07-01T13:30:00Z,30.2513,-88.0778,7.25,5.17,1111122 
DISL,ioos:station:DISL:DISL:1,2010-07-01T14:00:00Z,30.2513,-88.0778,7.11,5.49,1111122 
DISL,ioos:station:DISL:DISL:1,2010-07-01T14:30:00Z,30.2513,-88.0778,7.11,5.52,1111122 
DISL,ioos:station:DISL:DISL:1,2010-07-01T15:00:00Z,30.2513,-88.0778,7.27,5.91,1111122 
DISL,ioos:station:DISL:DISL:1,2010-07-01T15:30:00Z,30.2513,-88.0778,7.37,5.77,1111122 
DISL,ioos:station:DISL:DISL:1,2010-07-01T16:00:00Z,30.2513,-88.0778,7.32,5.7,1111122 
DISL,ioos:station:DISL:DISL:1,2010-07-01T16:30:00Z,30.2513,-88.0778,7.48,5.58,1111122 
DISL,ioos:station:DISL:DISL:1,2010-07-01T17:00:00Z,30.2513,-88.0778,7.45,5.23,1111122 
DISL,ioos:station:DISL:DISL:1,2010-07-01T17:30:00Z,30.2513,-88.0778,7.48,4.91,1111122 
DISL,ioos:station:DISL:DISL:1,2010-07-01T18:00:00Z,30.2513,-88.0778,7.49,5.73,1111122 
DISL,ioos:station:DISL:DISL:1,2010-07-01T18:30:00Z,30.2513,-88.0778,7.44,5.63,1111122 
DISL,ioos:station:DISL:DISL:1,2010-07-01T19:00:00Z,30.2513,-88.0778,7.49,5.43,1111122 
DISL,ioos:station:DISL:DISL:1,2010-07-01T19:30:00Z,30.2513,-88.0778,7.4,6.08,1111122 
DISL,ioos:station:DISL:DISL:1,2010-07-01T20:00:00Z,30.2513,-88.0778,7.37,6.55,1111122 
DISL,ioos:station:DISL:DISL:1,2010-07-01T20:30:00Z,30.2513,-88.0778,7.26,7.0,1111122 
DISL,ioos:station:DISL:DISL:1,2010-07-01T21:00:00Z,30.2513,-88.0778,7.24,6.65,1111122 
DISL,ioos:station:DISL:DISL:1,2010-07-01T21:30:00Z,30.2513,-88.0778,7.2,7.82,1111122 
DISL,ioos:station:DISL:DISL:1,2010-07-01T22:00:00Z,30.2513,-88.0778,7.09,7.73,1111122 
DISL,ioos:station:DISL:DISL:1,2010-07-01T22:30:00Z,30.2513,-88.0778,7.01,8.01,1111122 
DISL,ioos:station:DISL:DISL:1,2010-07-01T23:00:00Z,30.2513,-88.0778,7.02,7.89,1111122 
DISL,ioos:station:DISL:DISL:1,2010-07-01T23:30:00Z,30.2513,-88.0778,6.945,7.83,1111122 
DISL,ioos:station:DISL:DISL:1,2010-07-02T00:00:00Z,30.2513,-88.0778,6.857,7.65,1111122 
DISL,ioos:station:DISL:DISL:1,2010-07-02T00:30:00Z,30.2513,-88.0778,6.76,7.56,1111122 
DISL,ioos:station:DISL:DISL:1,2010-07-02T01:00:00Z,30.2513,-88.0778,6.712,7.59,1111122 
DISL,ioos:station:DISL:DISL:1,2010-07-02T01:30:00Z,30.2513,-88.0778,6.658,7.59,1111122 
DISL,ioos:station:DISL:DISL:1,2010-07-02T02:00:00Z,30.2513,-88.0778,6.613,7.73,1111122 
DISL,ioos:station:DISL:DISL:1,2010-07-02T02:30:00Z,30.2513,-88.0778,6.432,7.76,1111122 
DISL,ioos:station:DISL:DISL:1,2010-07-02T03:00:00Z,30.2513,-88.0778,6.512,7.78,1111122 
DISL,ioos:station:DISL:DISL:1,2010-07-02T03:30:00Z,30.2513,-88.0778,6.563,8.15,1111122 
DISL,ioos:station:DISL:DISL:1,2010-07-02T04:00:00Z,30.2513,-88.0778,6.543,7.88,1111122 
DISL,ioos:station:DISL:DISL:1,2010-07-02T04:30:00Z,30.2513,-88.0778,6.578,7.17,1111122 
DISL,ioos:station:DISL:DISL:1,2010-07-02T05:00:00Z,30.2513,-88.0778,6.488,6.94,1111122 
DISL,ioos:station:DISL:DISL:1,2010-07-02T05:30:00Z,30.2513,-88.0778,6.558,6.7,1111122 
DISL,ioos:station:DISL:DISL:1,2010-07-02T06:00:00Z,30.2513,-88.0778,6.626,6.41,1111122 
DISL,ioos:station:DISL:DISL:1,2010-07-02T06:30:00Z,30.2513,-88.0778,6.692,5.48,1111122 
DISL,ioos:station:DISL:DISL:1,2010-07-02T07:00:00Z,30.2513,-88.0778,6.628,5.04,1111122 
DISL,ioos:station:DISL:DISL:1,2010-07-02T07:30:00Z,30.2513,-88.0778,6.65,5.13,1111122 
DISL,ioos:station:DISL:DISL:1,2010-07-02T08:00:00Z,30.2513,-88.0778,6.65,5.09,1111122 
DISL,ioos:station:DISL:DISL:1,2010-07-02T08:30:00Z,30.2513,-88.0778,6.716,4.83,1111122 
DISL,ioos:station:DISL:DISL:1,2010-07-02T09:00:00Z,30.2513,-88.0778,6.815,5.33,1111122 
DISL,ioos:station:DISL:DISL:1,2010-07-02T09:30:00Z,30.2513,-88.0778,6.852,5.06,1111122 
DISL,ioos:station:DISL:DISL:1,2010-07-02T10:00:00Z,30.2513,-88.0778,6.908,5.69,1111122 
DISL,ioos:station:DISL:DISL:1,2010-07-02T10:30:00Z,30.2513,-88.0778,6.901,5.81,1111122 
DISL,ioos:station:DISL:DISL:1,2010-07-02T11:00:00Z,30.2513,-88.0778,6.862,5.84,1111122 
DISL,ioos:station:DISL:DISL:1,2010-07-02T11:30:00Z,30.2513,-88.0778,7.01,5.52,1111122 
DISL,ioos:station:DISL:DISL:1,2010-07-02T12:00:00Z,30.2513,-88.0778,7.01,5.33,1111122 
DISL,ioos:station:DISL:DISL:1,2010-07-02T12:30:00Z,30.2513,-88.0778,7.02,5.65,1111122 
DISL,ioos:station:DISL:DISL:1,2010-07-02T13:00:00Z,30.2513,-88.0778,7.02,5.51,1111122 
DISL,ioos:station:DISL:DISL:1,2010-07-02T13:30:00Z,30.2513,-88.0778,6.991,5.24,1111122 
DISL,ioos:station:DISL:DISL:1,2010-07-02T14:00:00Z,30.2513,-88.0778,7.04,5.27,1111122 
DISL,ioos:station:DISL:DISL:1,2010-07-02T14:30:00Z,30.2513,-88.0778,7.01,5.46,1111122 
DISL,ioos:station:DISL:DISL:1,2010-07-02T15:00:00Z,30.2513,-88.0778,7.01,6.76,1111122 
DISL,ioos:station:DISL:DISL:1,2010-07-02T15:30:00Z,30.2513,-88.0778,7.07,7.42,1111122 
DISL,ioos:station:DISL:DISL:1,2010-07-02T16:00:00Z,30.2513,-88.0778,7.04,7.91,1111122 
DISL,ioos:station:DISL:DISL:1,2010-07-02T16:30:00Z,30.2513,-88.0778,7.1,7.45,1111122 
DISL,ioos:station:DISL:DISL:1,2010-07-02T17:00:00Z,30.2513,-88.0778,7.03,6.32,1111122 
DISL,ioos:station:DISL:DISL:1,2010-07-02T17:30:00Z,30.2513,-88.0778,7.07,5.07,1111122 
DISL,ioos:station:DISL:DISL:1,2010-07-02T18:00:00Z,30.2513,-88.0778,7.05,5.17,1111122 
DISL,ioos:station:DISL:DISL:1,2010-07-02T18:30:00Z,30.2513,-88.0778,7.01,4.91,1111122 
DISL,ioos:station:DISL:DISL:1,2010-07-02T19:00:00Z,30.2513,-88.0778,7.07,5.69,1111122 
DISL,ioos:station:DISL:DISL:1,2010-07-02T19:30:00Z,30.2513,-88.0778,7.02,6.28,1111122 
DISL,ioos:station:DISL:DISL:1,2010-07-02T20:00:00Z,30.2513,-88.0778,7.03,6.69,1111122 
DISL,ioos:station:DISL:DISL:1,2010-07-02T20:30:00Z,30.2513,-88.0778,7.02,6.87,1111122 
DISL,ioos:station:DISL:DISL:1,2010-07-02T21:00:00Z,30.2513,-88.0778,6.975,6.52,1111122 
DISL,ioos:station:DISL:DISL:1,2010-07-02T21:30:00Z,30.2513,-88.0778,6.936,6.91,1111122 
DISL,ioos:station:DISL:DISL:1,2010-07-02T22:00:00Z,30.2513,-88.0778,6.929,6.91,1111122 
DISL,ioos:station:DISL:DISL:1,2010-07-02T22:30:00Z,30.2513,-88.0778,6.899,9.97,1111122 
DISL,ioos:station:DISL:DISL:1,2010-07-02T23:00:00Z,30.2513,-88.0778,6.879,10.48,1111122 
DISL,ioos:station:DISL:DISL:1,2010-07-02T23:30:00Z,30.2513,-88.0778,6.794,10.43,1111122 
DISL,ioos:station:DISL:DISL:1,2010-07-03T00:00:00Z,30.2513,-88.0778,6.83,10.1,1111122 
DISL,ioos:station:DISL:DISL:1,2010-07-03T00:30:00Z,30.2513,-88.0778,6.856,9.82,1111122 
DISL,ioos:station:DISL:DISL:1,2010-07-03T01:00:00Z,30.2513,-88.0778,6.844,9.55,1111122 
DISL,ioos:station:DISL:DISL:1,2010-07-03T01:30:00Z,30.2513,-88.0778,6.785,9.27,1111122 
DISL,ioos:station:DISL:DISL:1,2010-07-03T02:00:00Z,30.2513,-88.0778,6.735,9.24,1111122 
DISL,ioos:station:DISL:DISL:1,2010-07-03T02:30:00Z,30.2513,-88.0778,6.809,8.89,1111122 
DISL,ioos:station:DISL:DISL:1,2010-07-03T03:00:00Z,30.2513,-88.0778,6.784,8.96,1111122 
DISL,ioos:station:DISL:DISL:1,2010-07-03T03:30:00Z,30.2513,-88.0778,6.805,8.23,1111122 
DISL,ioos:station:DISL:DISL:1,2010-07-03T04:00:00Z,30.2513,-88.0778,6.878,7.37,1111122 
DISL,ioos:station:DISL:DISL:1,2010-07-03T04:30:00Z,30.2513,-88.0778,7.01,7.26,1111122 
DISL,ioos:station:DISL:DISL:1,2010-07-03T05:00:00Z,30.2513,-88.0778,6.954,7.88,1111122 
DISL,ioos:station:DISL:DISL:1,2010-07-03T05:30:00Z,30.2513,-88.0778,6.92,7.72,1111122 
DISL,ioos:station:DISL:DISL:1,2010-07-03T06:00:00Z,30.2513,-88.0778,6.922,7.01,1111122 
DISL,ioos:station:DISL:DISL:1,2010-07-03T06:30:00Z,30.2513,-88.0778,7.01,5.76,1111122 
DISL,ioos:station:DISL:DISL:1,2010-07-03T07:00:00Z,30.2513,-88.0778,7.07,6.2,1111122 
DISL,ioos:station:DISL:DISL:1,2010-07-03T07:30:00Z,30.2513,-88.0778,7.11,6.4,1111122 
DISL,ioos:station:DISL:DISL:1,2010-07-03T08:00:00Z,30.2513,-88.0778,7.07,6.28,1111122 
DISL,ioos:station:DISL:DISL:1,2010-07-03T08:30:00Z,30.2513,-88.0778,7.15,6.1,1111122 
DISL,ioos:station:DISL:DISL:1,2010-07-03T09:00:00Z,30.2513,-88.0778,7.12,5.56,1111122 
DISL,ioos:station:DISL:DISL:1,2010-07-03T09:30:00Z,30.2513,-88.0778,7.24,5.49,1111122 
DISL,ioos:station:DISL:DISL:1,2010-07-03T10:00:00Z,30.2513,-88.0778,7.28,5.85,1111122 
DISL,ioos:station:DISL:DISL:1,2010-07-03T10:30:00Z,30.2513,-88.0778,7.34,6.04,1111122 
DISL,ioos:station:DISL:DISL:1,2010-07-03T11:00:00Z,30.2513,-88.0778,7.27,6.13,1111122 
DISL,ioos:station:DISL:DISL:1,2010-07-03T11:30:00Z,30.2513,-88.0778,7.04,6.31,1111122 
DISL,ioos:station:DISL:DISL:1,2010-07-03T12:00:00Z,30.2513,-88.0778,7.32,6.39,1111122 
DISL,ioos:station:DISL:DISL:1,2010-07-03T12:30:00Z,30.2513,-88.0778,7.24,6.34,1111122 
DISL,ioos:station:DISL:DISL:1,2010-07-03T13:00:00Z,30.2513,-88.0778,7.42,6.25,1111122 
DISL,ioos:station:DISL:DISL:1,2010-07-03T13:30:00Z,30.2513,-88.0778,7.59,5.9,1111122 
DISL,ioos:station:DISL:DISL:1,2010-07-03T14:00:00Z,30.2513,-88.0778,7.42,5.88,1111122 
DISL,ioos:station:DISL:DISL:1,2010-07-03T14:30:00Z,30.2513,-88.0778,7.43,5.95,1111122 
DISL,ioos:station:DISL:DISL:1,2010-07-03T15:00:00Z,30.2513,-88.0778,7.34,6.02,1111122 
DISL,ioos:station:DISL:DISL:1,2010-07-03T15:30:00Z,30.2513,-88.0778,7.31,5.9,1111122 
DISL,ioos:station:DISL:DISL:1,2010-07-03T16:00:00Z,30.2513,-88.0778,7.46,5.95,1111122 
DISL,ioos:station:DISL:DISL:1,2010-07-03T16:30:00Z,30.2513,-88.0778,7.43,5.71,1111122 
DISL,ioos:station:DISL:DISL:1,2010-07-03T17:00:00Z,30.2513,-88.0778,7.44,6.04,1111122 
DISL,ioos:station:DISL:DISL:1,2010-07-03T17:30:00Z,30.2513,-88.0778,7.45,6.23,1111122 
DISL,ioos:station:DISL:DISL:1,2010-07-03T18:00:00Z,30.2513,-88.0778,7.47,5.91,1111122 
DISL,ioos:station:DISL:DISL:1,2010-07-03T18:30:00Z,30.2513,-88.0778,7.42,5.43,1111122 
DISL,ioos:station:DISL:DISL:1,2010-07-03T19:00:00Z,30.2513,-88.0778,7.45,6.56,1111122 
DISL,ioos:station:DISL:DISL:1,2010-07-03T19:30:00Z,30.2513,-88.0778,7.4,6.59,1111122 
DISL,ioos:station:DISL:DISL:1,2010-07-03T20:00:00Z,30.2513,-88.0778,7.33,6.54,1111122 
DISL,ioos:station:DISL:DISL:1,2010-07-03T20:30:00Z,30.2513,-88.0778,7.42,6.69,1111122 
DISL,ioos:station:DISL:DISL:1,2010-07-03T21:00:00Z,30.2513,-88.0778,7.4,6.67,1111122 
DISL,ioos:station:DISL:DISL:1,2010-07-03T21:30:00Z,30.2513,-88.0778,7.34,6.26,1111122 
DISL,ioos:station:DISL:DISL:1,2010-07-03T22:00:00Z,30.2513,-88.0778,7.42,6.4,1111122 
DISL,ioos:station:DISL:DISL:1,2010-07-03T22:30:00Z,30.2513,-88.0778,7.19,6.74,1111122 
DISL,ioos:station:DISL:DISL:1,2010-07-03T23:00:00Z,30.2513,-88.0778,7.31,6.7,1111122 
DISL,ioos:station:DISL:DISL:1,2010-07-03T23:30:00Z,30.2513,-88.0778,7.3,6.62,1111122 
DISL,ioos:station:DISL:DISL:1,2010-07-04T00:00:00Z,30.2513,-88.0778,7.23,6.8,1111122 
DISL,ioos:station:DISL:DISL:1,2010-07-04T00:30:00Z,30.2513,-88.0778,7.25,6.99,1111122 
DISL,ioos:station:DISL:DISL:1,2010-07-04T01:00:00Z,30.2513,-88.0778,7.26,6.79,1111122 
DISL,ioos:station:DISL:DISL:1,2010-07-04T01:30:00Z,30.2513,-88.0778,7.25,5.89,1111122 
DISL,ioos:station:DISL:DISL:1,2010-07-04T02:00:00Z,30.2513,-88.0778,7.19,6.12,1111122 
DISL,ioos:station:DISL:DISL:1,2010-07-04T02:30:00Z,30.2513,-88.0778,7.24,5.55,1111122 
DISL,ioos:station:DISL:DISL:1,2010-07-04T03:00:00Z,30.2513,-88.0778,7.34,5.55,1111122 
DISL,ioos:station:DISL:DISL:1,2010-07-04T03:30:00Z,30.2513,-88.0778,7.28,5.27,1111122 
DISL,ioos:station:DISL:DISL:1,2010-07-04T04:00:00Z,30.2513,-88.0778,7.31,5.55,1111122 
DISL,ioos:station:DISL:DISL:1,2010-07-04T04:30:00Z,30.2513,-88.0778,7.35,5.58,1111122 
DISL,ioos:station:DISL:DISL:1,2010-07-04T05:00:00Z,30.2513,-88.0778,7.34,5.62,1111122 
DISL,ioos:station:DISL:DISL:1,2010-07-04T05:30:00Z,30.2513,-88.0778,7.36,5.52,1111122 
DISL,ioos:station:DISL:DISL:1,2010-07-04T06:00:00Z,30.2513,-88.0778,7.34,5.89,1111122 
DISL,ioos:station:DISL:DISL:1,2010-07-04T06:30:00Z,30.2513,-88.0778,7.53,5.73,1111122 
DISL,ioos:station:DISL:DISL:1,2010-07-04T07:00:00Z,30.2513,-88.0778,7.37,5.83,1111122 
DISL,ioos:station:DISL:DISL:1,2010-07-04T07:30:00Z,30.2513,-88.0778,7.34,5.75,1111122 
DISL,ioos:station:DISL:DISL:1,2010-07-04T08:00:00Z,30.2513,-88.0778,7.41,5.84,1111122 
DISL,ioos:station:DISL:DISL:1,2010-07-04T08:30:00Z,30.2513,-88.0778,7.45,5.67,1111122 
DISL,ioos:station:DISL:DISL:1,2010-07-04T09:00:00Z,30.2513,-88.0778,7.48,5.55,1111122 
DISL,ioos:station:DISL:DISL:1,2010-07-04T09:30:00Z,30.2513,-88.0778,7.53,5.48,1111122 
DISL,ioos:station:DISL:DISL:1,2010-07-04T10:00:00Z,30.2513,-88.0778,7.52,5.46,1111122 
DISL,ioos:station:DISL:DISL:1,2010-07-04T10:30:00Z,30.2513,-88.0778,7.57,5.41,1111122 
DISL,ioos:station:DISL:DISL:1,2010-07-04T11:00:00Z,30.2513,-88.0778,7.62,5.46,1111122 
DISL,ioos:station:DISL:DISL:1,2010-07-04T11:30:00Z,30.2513,-88.0778,7.66,5.71,1111122 
DISL,ioos:station:DISL:DISL:1,2010-07-04T12:00:00Z,30.2513,-88.0778,7.88,5.68,1111122 
DISL,ioos:station:DISL:DISL:1,2010-07-04T12:30:00Z,30.2513,-88.0778,7.63,5.74,1111122 
DISL,ioos:station:DISL:DISL:1,2010-07-04T13:00:00Z,30.2513,-88.0778,7.54,5.81,1111122 
DISL,ioos:station:DISL:DISL:1,2010-07-04T13:30:00Z,30.2513,-88.0778,7.58,5.86,1111122 
DISL,ioos:station:DISL:DISL:1,2010-07-04T14:00:00Z,30.2513,-88.0778,7.59,5.91,1111122 
DISL,ioos:station:DISL:DISL:1,2010-07-04T14:30:00Z,30.2513,-88.0778,7.56,6.03,1111122 
DISL,ioos:station:DISL:DISL:1,2010-07-04T15:00:00Z,30.2513,-88.0778,7.45,6.05,1111122 
DISL,ioos:station:DISL:DISL:1,2010-07-04T15:30:00Z,30.2513,-88.0778,7.47,6.11,1111122 
DISL,ioos:station:DISL:DISL:1,2010-07-04T16:00:00Z,30.2513,-88.0778,7.41,6.19,1111122 
DISL,ioos:station:DISL:DISL:1,2010-07-04T16:30:00Z,30.2513,-88.0778,7.54,6.28,1111122 
DISL,ioos:station:DISL:DISL:1,2010-07-04T17:00:00Z,30.2513,-88.0778,7.41,6.42,1111122 
DISL,ioos:station:DISL:DISL:1,2010-07-04T17:30:00Z,30.2513,-88.0778,7.38,6.57,1111122 
DISL,ioos:station:DISL:DISL:1,2010-07-04T18:00:00Z,30.2513,-88.0778,7.34,6.63,1111122 
DISL,ioos:station:DISL:DISL:1,2010-07-04T18:30:00Z,30.2513,-88.0778,7.28,6.62,1111122 
DISL,ioos:station:DISL:DISL:1,2010-07-04T19:00:00Z,30.2513,-88.0778,7.26,6.58,1111122 
DISL,ioos:station:DISL:DISL:1,2010-07-04T19:30:00Z,30.2513,-88.0778,7.27,6.67,1111122 
DISL,ioos:station:DISL:DISL:1,2010-07-04T20:00:00Z,30.2513,-88.0778,7.25,6.79,1111122 
DISL,ioos:station:DISL:DISL:1,2010-07-04T20:30:00Z,30.2513,-88.0778,7.22,6.8,1111122 
DISL,ioos:station:DISL:DISL:1,2010-07-04T21:00:00Z,30.2513,-88.0778,7.19,6.69,1111122 
DISL,ioos:station:DISL:DISL:1,2010-07-04T21:30:00Z,30.2513,-88.0778,7.18,6.73,1111122 
DISL,ioos:station:DISL:DISL:1,2010-07-04T22:00:00Z,30.2513,-88.0778,7.1,6.76,1111122 
DISL,ioos:station:DISL:DISL:1,2010-07-04T22:30:00Z,30.2513,-88.0778,7.2,6.95,1111122 
DISL,ioos:station:DISL:DISL:1,2010-07-04T23:00:00Z,30.2513,-88.0778,7.21,6.86,1111122 
DISL,ioos:station:DISL:DISL:1,2010-07-04T23:30:00Z,30.2513,-88.0778,7.18,6.91,1111122 
DISL,ioos:station:DISL:DISL:1,2010-07-05T00:00:00Z,30.2513,-88.0778,7.2,6.33,1111122 
DISL,ioos:station:DISL:DISL:1,2010-07-05T00:30:00Z,30.2513,-88.0778,7.27,6.33,1111122 
DISL,ioos:station:DISL:DISL:1,2010-07-05T01:00:00Z,30.2513,-88.0778,7.2,6.4,1111122 
DISL,ioos:station:DISL:DISL:1,2010-07-05T01:30:00Z,30.2513,-88.0778,7.22,6.35,1111122 
DISL,ioos:station:DISL:DISL:1,2010-07-05T02:00:00Z,30.2513,-88.0778,7.21,6.29,1111122 
DISL,ioos:station:DISL:DISL:1,2010-07-05T02:30:00Z,30.2513,-88.0778,7.34,6.42,1111122 
DISL,ioos:station:DISL:DISL:1,2010-07-05T03:00:00Z,30.2513,-88.0778,7.4,6.19,1111122 
DISL,ioos:station:DISL:DISL:1,2010-07-05T03:30:00Z,30.2513,-88.0778,7.4,6.09,1111122 
DISL,ioos:station:DISL:DISL:1,2010-07-05T04:00:00Z,30.2513,-88.0778,7.4,6.01,1111122 
DISL,ioos:station:DISL:DISL:1,2010-07-05T04:30:00Z,30.2513,-88.0778,7.49,5.93,1111122 
DISL,ioos:station:DISL:DISL:1,2010-07-05T05:00:00Z,30.2513,-88.0778,7.52,5.91,1111122 
DISL,ioos:station:DISL:DISL:1,2010-07-05T05:30:00Z,30.2513,-88.0778,7.64,5.91,1111122 
DISL,ioos:station:DISL:DISL:1,2010-07-05T06:00:00Z,30.2513,-88.0778,7.59,6.15,1111122 
DISL,ioos:station:DISL:DISL:1,2010-07-05T06:30:00Z,30.2513,-88.0778,7.61,6.01,1111122 
DISL,ioos:station:DISL:DISL:1,2010-07-05T07:00:00Z,30.2513,-88.0778,7.67,5.89,1111122 
DISL,ioos:station:DISL:DISL:1,2010-07-05T07:30:00Z,30.2513,-88.0778,7.78,5.87,1111122 
DISL,ioos:station:DISL:DISL:1,2010-07-05T08:00:00Z,30.2513,-88.0778,7.82,5.82,1111122 
DISL,ioos:station:DISL:DISL:1,2010-07-05T08:30:00Z,30.2513,-88.0778,7.84,5.84,1111122 
DISL,ioos:station:DISL:DISL:1,2010-07-05T09:00:00Z,30.2513,-88.0778,7.8,5.78,1111122 
DISL,ioos:station:DISL:DISL:1,2010-07-05T09:30:00Z,30.2513,-88.0778,7.82,5.4,1111122 
DISL,ioos:station:DISL:DISL:1,2010-07-05T10:00:00Z,30.2513,-88.0778,7.86,5.4,1111122 
DISL,ioos:station:DISL:DISL:1,2010-07-05T10:30:00Z,30.2513,-88.0778,8.02,5.3,1111122 
DISL,ioos:station:DISL:DISL:1,2010-07-05T11:00:00Z,30.2513,-88.0778,7.99,5.78,1111122 
DISL,ioos:station:DISL:DISL:1,2010-07-05T11:30:00Z,30.2513,-88.0778,7.96,5.57,1111122 
DISL,ioos:station:DISL:DISL:1,2010-07-05T12:00:00Z,30.2513,-88.0778,8.07,5.09,1111122 
DISL,ioos:station:DISL:DISL:1,2010-07-05T12:30:00Z,30.2513,-88.0778,7.93,5.74,1111122 
DISL,ioos:station:DISL:DISL:1,2010-07-05T13:00:00Z,30.2513,-88.0778,7.88,5.28,1111122 
DISL,ioos:station:DISL:DISL:1,2010-07-05T13:30:00Z,30.2513,-88.0778,7.78,5.17,1111122 
DISL,ioos:station:DISL:DISL:1,2010-07-05T14:00:00Z,30.2513,-88.0778,7.74,5.79,1111122 
DISL,ioos:station:DISL:DISL:1,2010-07-05T14:30:00Z,30.2513,-88.0778,7.67,5.89,1111122 
DISL,ioos:station:DISL:DISL:1,2010-07-05T15:00:00Z,30.2513,-88.0778,7.59,5.65,1111122 
DISL,ioos:station:DISL:DISL:1,2010-07-05T15:30:00Z,30.2513,-88.0778,7.49,5.95,1111122 
DISL,ioos:station:DISL:DISL:1,2010-07-05T16:00:00Z,30.2513,-88.0778,7.49,6.36,1111122 
DISL,ioos:station:DISL:DISL:1,2010-07-05T16:30:00Z,30.2513,-88.0778,7.32,6.65,1111122 
DISL,ioos:station:DISL:DISL:1,2010-07-05T17:00:00Z,30.2513,-88.0778,7.26,6.76,1111122 
DISL,ioos:station:DISL:DISL:1,2010-07-05T17:30:00Z,30.2513,-88.0778,7.21,6.78,1111122 
DISL,ioos:station:DISL:DISL:1,2010-07-05T18:00:00Z,30.2513,-88.0778,7.21,6.77,1111122 
DISL,ioos:station:DISL:DISL:1,2010-07-05T18:30:00Z,30.2513,-88.0778,7.14,6.94,1111122 
DISL,ioos:station:DISL:DISL:1,2010-07-05T19:00:00Z,30.2513,-88.0778,7.06,7.12,1111122 
DISL,ioos:station:DISL:DISL:1,2010-07-05T19:30:00Z,30.2513,-88.0778,7.05,7.17,1111122 
DISL,ioos:station:DISL:DISL:1,2010-07-05T20:00:00Z,30.2513,-88.0778,6.967,7.3,1111122 
DISL,ioos:station:DISL:DISL:1,2010-07-05T20:30:00Z,30.2513,-88.0778,6.933,7.21,1111122 
DISL,ioos:station:DISL:DISL:1,2010-07-05T21:00:00Z,30.2513,-88.0778,6.898,7.34,1111122 
DISL,ioos:station:DISL:DISL:1,2010-07-05T21:30:00Z,30.2513,-88.0778,6.918,7.3,1111122 
DISL,ioos:station:DISL:DISL:1,2010-07-05T22:00:00Z,30.2513,-88.0778,6.929,7.3,1111122 
DISL,ioos:station:DISL:DISL:1,2010-07-05T22:30:00Z,30.2513,-88.0778,6.805,7.32,1111122 
DISL,ioos:station:DISL:DISL:1,2010-07-05T23:00:00Z,30.2513,-88.0778,6.842,7.08,1111122 
DISL,ioos:station:DISL:DISL:1,2010-07-05T23:30:00Z,30.2513,-88.0778,6.856,7.12,1111122 
DISL,ioos:station:DISL:DISL:1,2010-07-06T00:00:00Z,30.2513,-88.0778,6.848,6.92,1111122 
DISL,ioos:station:DISL:DISL:1,2010-07-06T00:30:00Z,30.2513,-88.0778,6.944,6.88,1111122 
DISL,ioos:station:DISL:DISL:1,2010-07-06T01:00:00Z,30.2513,-88.0778,7.0,6.74,1111122 
DISL,ioos:station:DISL:DISL:1,2010-07-06T01:30:00Z,30.2513,-88.0778,7.01,6.52,1111122 
DISL,ioos:station:DISL:DISL:1,2010-07-06T02:00:00Z,30.2513,-88.0778,7.12,6.48,1111122 
DISL,ioos:station:DISL:DISL:1,2010-07-06T02:30:00Z,30.2513,-88.0778,6.989,6.32,1111122 
DISL,ioos:station:DISL:DISL:1,2010-07-06T03:00:00Z,30.2513,-88.0778,7.03,6.28,1111122 
DISL,ioos:station:DISL:DISL:1,2010-07-06T03:30:00Z,30.2513,-88.0778,7.11,6.14,1111122 
DISL,ioos:station:DISL:DISL:1,2010-07-06T04:00:00Z,30.2513,-88.0778,7.14,5.87,1111122 
DISL,ioos:station:DISL:DISL:1,2010-07-06T04:30:00Z,30.2513,-88.0778,7.15,5.46,1111122 
DISL,ioos:station:DISL:DISL:1,2010-07-06T05:00:00Z,30.2513,-88.0778,7.25,5.55,1111122 
DISL,ioos:station:DISL:DISL:1,2010-07-06T05:30:00Z,30.2513,-88.0778,7.32,5.99,1111122 
DISL,ioos:station:DISL:DISL:1,2010-07-06T06:00:00Z,30.2513,-88.0778,7.35,5.99,1111122 
DISL,ioos:station:DISL:DISL:1,2010-07-06T06:30:00Z,30.2513,-88.0778,7.3,6.06,1111122 
DISL,ioos:station:DISL:DISL:1,2010-07-06T07:00:00Z,30.2513,-88.0778,7.47,5.72,1111122 
DISL,ioos:station:DISL:DISL:1,2010-07-06T07:30:00Z,30.2513,-88.0778,7.62,5.33,1111122 
DISL,ioos:station:DISL:DISL:1,2010-07-06T08:00:00Z,30.2513,-88.0778,7.73,5.42,1111122 
DISL,ioos:station:DISL:DISL:1,2010-07-06T08:30:00Z,30.2513,-88.0778,7.84,5.68,1111122 
DISL,ioos:station:DISL:DISL:1,2010-07-06T09:00:00Z,30.2513,-88.0778,7.88,5.55,1111122 
DISL,ioos:station:DISL:DISL:1,2010-07-06T09:30:00Z,30.2513,-88.0778,7.99,5.44,1111122 
DISL,ioos:station:DISL:DISL:1,2010-07-06T10:00:00Z,30.2513,-88.0778,8.07,5.69,1111122 
DISL,ioos:station:DISL:DISL:1,2010-07-06T10:30:00Z,30.2513,-88.0778,8.05,5.89,1111122 
DISL,ioos:station:DISL:DISL:1,2010-07-06T11:00:00Z,30.2513,-88.0778,7.84,5.9,1111122 
DISL,ioos:station:DISL:DISL:1,2010-07-06T11:30:00Z,30.2513,-88.0778,7.86,5.97,1111122 
DISL,ioos:station:DISL:DISL:1,2010-07-06T12:00:00Z,30.2513,-88.0778,7.93,5.76,1111122 
DISL,ioos:station:DISL:DISL:1,2010-07-06T12:30:00Z,30.2513,-88.0778,7.93,5.68,1111122 
DISL,ioos:station:DISL:DISL:1,2010-07-06T13:00:00Z,30.2513,-88.0778,7.92,6.04,1111122 
DISL,ioos:station:DISL:DISL:1,2010-07-06T13:30:00Z,30.2513,-88.0778,7.92,6.19,1111122 
DISL,ioos:station:DISL:DISL:1,2010-07-06T14:00:00Z,30.2513,-88.0778,7.81,6.22,1111122 
DISL,ioos:station:DISL:DISL:1,2010-07-06T14:30:00Z,30.2513,-88.0778,7.87,6.21,1111122 
DISL,ioos:station:DISL:DISL:1,2010-07-06T15:00:00Z,30.2513,-88.0778,7.72,6.42,1111122 
DISL,ioos:station:DISL:DISL:1,2010-07-06T15:30:00Z,30.2513,-88.0778,7.69,6.57,1111122 
DISL,ioos:station:DISL:DISL:1,2010-07-06T16:00:00Z,30.2513,-88.0778,7.64,6.62,1111122 
DISL,ioos:station:DISL:DISL:1,2010-07-06T16:30:00Z,30.2513,-88.0778,7.6,6.74,1111122 